Terminal Aerodrome Forecast
Issued by NWS

Home | Current Version | Previous Version | Text Only | Print | Product List | Glossary On
Versions: 1 2 3 4 5 6 7 8 9 10 11 12 13 14 15 16 17 18 19 20 21 22 23 24
000
FTUS43 KDLH 022300 RRA
TAFHIB
TAF
KHIB 022343Z 0300/0324 19010KT P6SM SCT120
     FM030600 18012KT P6SM VCSH SCT030 OVC060
     FM030900 19014KT 3SM -SN SCT015 OVC030
     FM031400 23008KT 1SM -SN OVC015
     FM031800 27014G20KT 4SM -SN BLSN SCT015 OVC025
     FM032100 31016G28KT 6SM BLSN OVC030=

USA.gov is the U.S. government's official web portal to all federal, state and local government web resources and services.